Location: Catstown
(52.4386°N, 7.2633°W)
Time: 23:30:34
(UTC+00:00)

Cosmos 1455 Rocket - Pass Details

Date: 18 September 2020
Orbit: 604 x 630 km, 82.5° (Epoch: 30 October)

Event Time Altitude Azimuth Distance (km) Brightness Sun altitude
Exits shadow 21:22:59 27° 40° (NE) 1,200 4.5 -24.3°
Drops below altitude 10° 21:25:15 10° 22° (NNE) 1,993 5.8 -24.6°
Sets 21:27:33 0° 16° (NNE) 2,900 6.8 -24.8°
